Location: Fountain Hills
(33.6120°N, 111.7170°W)
Time: 22:30:46
(UTC-07:00)

Daily predictions for brighter satellites

Satellite Brightness Start Highest point End
(mag) Time Altitude Azimuth Time Altitude Azimuth Time Altitude Azimuth
Cosmos 1980 Rocket 2.2 19:27:18 10° S 19:32:54 70° ESE 19:38:34 10° NNE
CZ-2D R/B 4.1 19:29:56 10° SE 19:33:25 32° ENE 19:36:55 10° N
Cosmos 1110 Rocket 4.3 19:29:57 10° SSW 19:35:11 76° WNW 19:40:30 10° NNE
Cosmos 1470 Rocket 4.4 19:31:51 10° NNW 19:36:05 53° W 19:40:16 10° S
Resurs 1-3 4.1 19:32:29 10° SE 19:36:35 41° ENE 19:40:44 10° N
SL-8 R/B 4.0 19:32:31 10° NW 19:37:16 56° NE 19:41:56 10° ESE
Helios 1B rocket 3.5 19:34:11 10° NE 19:37:30 23° E 19:40:47 10° SSE
Lacrosse 5 4.2 19:36:04 10° WNW 19:39:47 21° WSW 19:43:30 10° SSW
Cosmos 1825 4.3 19:41:51 10° ENE 19:42:18 10° ENE 19:42:45 10° E
Cosmos 2227 Rocket 3.5 19:38:25 10° NW 19:43:43 42° WSW 19:48:58 10° S
Cosmos 1869 Rocket 4.2 19:39:35 10° N 19:43:46 37° E 19:47:55 10° SSE
H-2A R/B 4.4 19:37:36 10° W 19:43:55 64° S 20:26:53 17° ESE
H-2A R/B 4.4 19:37:36 10° W 19:43:55 64° S 20:26:57 17° ESE
H-2A R/B 4.4 19:37:35 10° W 19:43:56 64° S 20:26:58 17° ESE
H-2A R/B 4.4 19:37:36 10° W 19:43:56 64° S 20:26:57 17° ESE
H-2A R/B 4.4 19:37:36 10° W 19:43:56 64° S 20:26:56 17° ESE
Hubble Space Telescope 3.1 19:41:48 10° WSW 19:44:07 15° SSW 19:46:25 10° SSE
FengYun 1-2 T 4.3 19:39:40 10° SSE 19:45:19 89° WSW 19:51:01 10° NNW
Cosmos 1302 Rocket 4.0 19:41:29 10° S 19:46:37 65° ESE 19:51:45 10° NNE
Envisat 4.2 19:43:01 10° ESE 19:47:05 25° ENE 19:51:09 10° NNE
SL-16 R/B 3.0 19:43:25 10° SSE 19:48:12 29° ESE 19:53:02 10° NE
GPS 2-04 Rocket1 3.1 19:52:36 10° W 19:56:04 47° SSW 19:58:46 16° SE
OAO 3 Rocket 3.2 19:57:47 10° WSW 20:02:41 88° S 20:07:07 13° E
SEDSat Delta rocket 4.0 19:59:10 10° SW 20:04:11 44° SSE 20:08:32 17° E
Resurs 01 Rocket 1.8 20:00:52 10° S 20:05:18 75° WSW 20:09:46 10° NNW
Helios 1A 3.4 20:03:27 15° SE 20:06:35 43° ENE 20:10:37 10° N
GRACE-1 3.6 20:04:45 10° N 20:07:30 80° E 20:10:07 11° S
GRACE-2 3.6 20:05:09 10° N 20:07:54 79° E 20:10:27 11° S
SAR-Lupe-4 4.1 20:07:09 21° SE 20:09:05 40° ENE 20:12:28 10° N
Atlas Centaur 2 3.3 20:05:03 10° SW 20:11:28 39° SSE 20:16:54 18° E
USA 234 3.8 20:07:21 16° ESE 20:12:13 45° NE 20:18:22 10° NNW
Cosmos 2227 4.3 20:14:06 10° NNW 20:19:46 60° ENE 20:23:23 22° SE
ATLAS CENTAUR R/B 2.8 20:19:02 10° NW 20:22:02 52° SW 20:28:14 14° SSE
ERS-1 Rocket 4.1 20:22:11 23° E 20:23:32 26° ENE 20:27:39 10° NNE
Cosmos 1408 3.2 20:20:45 10° NNE 20:24:09 35° E 20:24:35 34° E
Cosmos 2142 Rocket 4.4 20:18:49 10° S 20:24:56 80° E 20:31:05 10° N
Cosmos 1455 3.7 20:21:39 10° SSW 20:25:13 38° W 20:28:47 10° N
ERBS 4.0 20:22:45 10° N 20:25:29 21° NE 20:26:02 21° ENE
SAR-Lupe-1 4.1 20:25:19 35° SE 20:26:35 59° ENE 20:30:08 10° N
Cosmos 1869 3.4 20:25:50 10° SSW 20:29:44 73° W 20:33:41 10° N
Cosmos 1486 Rocket 3.9 20:25:34 10° NNW 20:30:49 90° ENE 20:34:21 21° SSE
OTV 4 1.2 20:31:35 10° W 20:34:14 37° SSW 20:34:14 37° SSW
Cosmos 220 Rocket 4.3 20:33:56 10° N 20:38:16 51° ENE 20:39:13 43° ESE
Cosmos 1992 Rocket 3.9 20:35:15 10° S 20:40:24 63° ESE 20:45:35 10° NNE
SeaSat 1 4.1 20:39:59 18° ENE 20:40:40 18° NE 20:43:58 10° NNE
USA 186 3.6 20:42:33 16° SW 20:43:46 23° W 20:46:01 10° NW
Milstar 3 3.0 20:40:52 10° W 20:48:27 55° S 20:50:57 36° SE
Cosmos 1933 3.2 20:50:28 64° E 20:50:30 64° E 20:54:31 10° NNE
Gblst 52 Del rocket 4.5 20:45:03 10° NW 20:50:39 58° SW 20:52:45 35° SSE
Cosmos 2026 Rocket 3.9 20:44:29 10° N 20:50:44 87° E 20:54:29 25° S
USA 229 DEB 4.3 20:51:56 33° E 20:51:56 33° E 20:57:05 10° NE
USA 229 4.3 20:52:12 32° E 20:52:12 32° E 20:57:09 10° NE
Cosmos 1315 Rocket 4.4 20:49:34 10° NNW 20:53:17 34° W 20:56:10 15° SSW
YAOGAN 6 3.0 20:54:41 50° NE 20:54:41 50° NE 20:57:41 10° N
DELTA 2 R/B (1) 3.6 20:52:39 10° WNW 20:58:13 66° SSW 20:59:32 50° SSE
Cosmos 1503 Rocket 3.9 20:56:43 10° NNW 21:01:59 87° ENE 21:03:11 55° SSE
H-2A R/B 3.8 21:04:41 18° NE 21:04:41 18° NE 21:07:02 10° NNE
Cosmos 2322 Rocket 2.9 20:59:31 10° SW 21:04:58 53° WNW 21:10:28 10° N
Cosmos 1354 Rocket 3.9 21:00:05 10° NNW 21:05:23 86° WSW 21:06:35 55° S
Cosmos 2263 Rocket 2.5 21:00:23 10° N 21:05:44 46° ENE 21:06:05 46° ENE
Cosmos 1733 Rocket 3.1 21:06:52 10° N 21:11:20 78° W 21:11:35 74° SW
Cosmos 1862 Rocket 4.0 21:11:07 38° SW 21:12:35 60° W 21:17:01 10° N
Cosmos 1655 Rocket 4.1 21:06:32 10° N 21:12:56 77° W 21:15:50 35° S
Meteor 2-10 Rocket 3.6 21:11:52 57° SSE 21:13:00 73° E 21:18:49 10° NNE
Cosmos 2360 Rocket 2.0 21:15:52 68° ESE 21:15:54 68° ESE 21:21:32 10° NNE
Lacrosse 4 Rocket 1.7 21:12:11 10° NNW 21:16:01 69° NNW 21:16:01 69° NNW
Cosmos 1825 3.4 21:14:30 10° NNW 21:18:02 37° W 21:18:16 37° WSW
Cosmos 1862 3.9 21:16:18 10° NNW 21:19:52 55° WNW 21:19:52 55° WNW
Cosmos 2322 3.9 21:22:28 55° ENE 21:22:28 55° ENE 21:27:08 10° NNE
Cosmos 1939 Rocket 4.4 21:21:31 29° WSW 21:22:20 31° W 21:25:58 10° NW
NOAA 11 4.1 21:24:37 74° E 21:24:39 74° ENE 21:30:09 10° N
Cosmos 968 Rocket 4.4 21:22:36 10° N 21:26:25 37° NE 21:26:25 37° NE
SL-16 R/B 3.9 21:27:09 10° SW 21:32:09 32° WNW 21:37:11 10° N
SPOT 5 3.4 21:34:04 50° NNE 21:34:04 50° NNE 21:37:42 10° N
Cosmos 2266 Rocket 3.9 21:32:18 10° N 21:38:21 71° ENE 21:38:21 71° ENE
MetOp-B 4.3 21:44:34 70° WNW 21:44:34 70° WNW 21:49:30 10° NNW
OAO 3 Rocket 4.1 21:41:27 10° W 21:44:57 46° WNW 21:44:57 46° WNW
ATLAS 5 CENTAUR R/B 2.9 21:42:01 10° NNW 21:47:28 51° NE 21:47:28 51° NE
SEDSat Delta rocket 4.4 21:44:41 10° W 21:48:41 47° WSW 21:48:41 47° WSW
SPOT 1/Viking Rocket 4.4 21:52:06 45° N 21:52:06 45° N 21:55:46 10° N
ARGOS 3.5 21:53:21 60° NNW 21:53:21 60° NNW 21:57:44 10° NNW
Nimbus 7 Rocket 4.4 21:46:28 10° N 21:52:11 77° NW 21:52:11 77° NW
USA 234 3.8 21:54:42 44° SW 21:55:07 45° SW 22:01:21 10° NW
Atlas Centaur 2 3.1 21:53:10 10° WSW 21:59:34 59° SW 21:59:34 59° SW
ERS-1 Rocket 4.5 22:02:11 29° W 22:02:11 29° W 22:06:30 10° NW
Cosmos 1844 Rocket 4.3 22:04:31 10° N 22:07:24 25° NNE 22:07:24 25° NNE
SeaSat 1 4.0 22:19:46 32° NW 22:19:46 32° NW 22:22:35 10° NW
Cosmos 2219 Rocket 4.5 22:27:00 14° NNE 22:27:00 14° NNE 22:27:50 10° NNE
Terra 4.2 22:44:39 19° NNW 22:44:39 19° NNW 22:46:03 10° NNW
H-2A R/B 4.1 22:45:19 23° NW 22:45:19 23° NW 22:47:25 10° NNW
COSMOS 2428 4.4 22:46:58 29° N 22:46:58 29° N 22:49:55 10° N
Cosmos 2263 Rocket 4.4 22:45:27 10° WNW 22:47:48 17° W 22:47:48 17° W
Cosmos 2333 Rocket 4.4 23:28:48 20° N 23:28:48 20° N 23:30:38 10° N
CZ-4C R/B 4.0 23:25:22 10° NNW 23:30:05 39° N 23:30:05 39° N
